Погода в Чеускине

Россия / Ханты-Мансийский автономный округ - Югра     61°07′19″N   72°26′07″E
темп.,
°C
ветер,
м/с
пор.,
м/с
влажн.,
%
обл.,
%
осадки,
мм/ч
давл.,
гПа
погр.,
м
26 февраля, пт
пт2623:00−33с359552 0.0 102474
02:00−33ссз349672 0.0 102333
05:00−33сз349776 0.0 102643
08:00−34сз239884 0.0 102625
11:00−29зсз239487 0.0 1027189
14:00−27зсз349396 0.0 1028270
17:00−29зсз229780 0.0 102819
20:00−30зюз229833 0.0 102919
27 февраля, сб
сб2723:00−29зюз239839 0.0 102920
02:00−30зюз339883 0.0 102922
05:00−31зюз239868 0.0 103019
08:00−31юз239815 0.0 102920
11:00−25ююз24937 0.0 1030203
14:00−21ююз238962 0.0 1030304
17:00−23ю229664 0.0 103020
20:00−26ю349623 0.0 103032
28 февраля, вс
вс2823:00−27ю349611 0.0 103025
02:00−27ююв349759 0.0 102936
05:00−28ююв449765 0.0 102952
08:00−28юв469696 0.0 102798
11:00−24юв579487 0.0 1027250
14:00−20юв579169 0.0 1025330
17:00−22вюв479451 0.0 102392
20:00−24вюв579625 0.0 1023115
1 марта, пн
пн123:00−25вюв459740 0.0 102173
02:00−26в449758 0.0 102065
05:00−25в449774 0.0 101962
08:00−26в349641 0.0 101852
11:00−21всв349449 0.0 1017145
14:00−19всв339117 0.0 1017198
17:00−22всв23959 0.0 101621
20:00−24всв22960 0.0 101620
2 марта, вт
вт223:00−25юв111000 0.0 101520
02:00−25юз1210011 0.0 101420
05:00−25ююз221008 0.0 101420
08:00−24ю339829 0.0 101328
11:00−18ююз359315 0.0 1011236
14:00−13ю589182 0.0 1010360
17:00−14ю5109291 0.0 1008299
20:00−14ю61392100 0.0 1007351